Terug naar catalogus

CZ-6A DEB

ActiefSSO
NORAD 54440·DEBRIS·🇨🇳 China

Gelanceerd Nov 11, 2022 vanaf Taiyuan Satellite Launch Center

Loading…

Volgende Passages (komende 24 uur)

TLE

VersSource: Space-Track

Epoch: Sep 14, 2026, 11:56 UTC

1 54440U 22151FQ  26257.49747634  .00003355  00000-0  82063-3 0  9992
2 54440  98.4800 275.4331 0077504  51.5190 309.2923 14.51391890201885

Volg CZ-6A DEB in realtime met AllMySat

Download on the App Store